Renton, WA
on Tuesday, November 13, 2012

Tuesday
Previous Day Next Day
Daily Summary
 ActualAverage (KSEA)Record (KSEA)
Temperature
Mean Temperature °F 46°F  
Max Temperature 53°F 51°F 62°F (1997)
Min Temperature 46°F 41°F 14°F (1955)
Degree Days
Heating Degree Days 16 19  
Month to date heating degree days 230  
Since 1 July heating degree days 827  
Cooling Degree Days 0 0  
Month to date cooling degree days 0  
Year to date cooling degree days 189  
Moisture
Dew Point 46°F   
Average Humidity 93    
Maximum Humidity 100    
Minimum Humidity 80    
Precipitation
Precipitation 0.22 in 0.23 in 1.68 in (1966)
Month to date precipitation 2.73  
Year to date precipitation 28.30  
Snow
Snow 0.00 in in 0.40 in (1964)
Month to date snowfall  
Since 1 July snowfall  
Snow Depth in   
Wind
Wind Speed 2 mph   
Max Wind Speed 5 mph   
Max Gust Speed mph   
Visibility 9 miles   
Events Rain   

Key: T is trace of precipitation, MM is missing value
Source: NWS Daily Summary
Time(PST)TemperatureDew PointHumidity Pressure Visibility Wind DirectionWind SpeedGust SpeedPrecipitationEvents Conditions
12:53 AM 48.2°F 44.6°F 87% 30.22 in 10.0 miles Calm Calm - N/A   Overcast
1:53 AM 48.0°F 45.0°F 89% 30.23 in 10.0 miles Calm Calm - N/A   Overcast
2:53 AM 48.0°F 45.0°F 89% 30.22 in 10.0 miles SE 4.6 mph - 0.01 in   Overcast
3:53 AM 48.2°F 46.4°F 93% 30.20 in 7.0 miles SE 3.5 mph - N/A Rain Light Rain
4:53 AM 48.0°F 45.0°F 89% 30.22 in 5.0 miles SE 3.5 mph - 0.03 in Rain Light Rain
5:19 AM 48.2°F 44.6°F 87% 30.21 in 3.0 miles Calm Calm - 0.01 in Rain Light Rain
5:25 AM 48.2°F 44.6°F 87% 30.21 in 3.0 miles Calm Calm - 0.02 in Rain Light Rain
5:53 AM 48.0°F 45.0°F 89% 30.22 in 7.0 miles Calm Calm - 0.03 in   Overcast
6:18 AM 48.2°F 44.6°F 87% 30.20 in 10.0 miles SE 3.5 mph - N/A   Overcast
6:53 AM 48.0°F 45.0°F 89% 30.22 in 10.0 miles SSE 4.6 mph - 0.00 in   Overcast
7:35 AM 48.2°F 44.6°F 87% 30.20 in 10.0 miles SE 3.5 mph - N/A   Overcast
7:53 AM 48.0°F 45.0°F 89% 30.22 in 10.0 miles East 3.5 mph - N/A   Overcast
8:53 AM 48.0°F 45.0°F 89% 30.22 in 10.0 miles South 4.6 mph - N/A   Overcast
9:31 AM 48.2°F 44.6°F 87% 30.21 in 10.0 miles ESE 3.5 mph - N/A   Overcast
9:53 AM 48.0°F 45.0°F 89% 30.22 in 10.0 miles SSE 4.6 mph - N/A   Overcast
10:53 AM 50.0°F 45.0°F 83% 30.22 in 10.0 miles SE 4.6 mph - N/A   Overcast
11:53 AM 51.1°F 46.9°F 86% 30.19 in 10.0 miles Calm Calm - 0.00 in   Overcast
12:53 PM 53.1°F 46.9°F 80% 30.18 in 10.0 miles Calm Calm - 0.00 in   Overcast
1:53 PM 51.1°F 46.9°F 86% 30.18 in 9.0 miles Calm Calm - 0.01 in Rain Light Rain
2:53 PM 50.0°F 48.0°F 93% 30.17 in 5.0 miles Calm Calm - 0.02 in Rain Light Rain
3:02 PM 50.0°F 48.2°F 94% 30.15 in 5.0 miles Calm Calm - 0.01 in Rain Light Rain
3:53 PM 48.9°F 48.9°F 100% 30.17 in 6.0 miles Calm Calm - 0.04 in Rain Light Rain
4:21 PM 48.2°F 48.2°F 100% 30.15 in 6.0 miles Calm Calm - 0.02 in Rain Light Rain
4:53 PM 48.0°F 48.0°F 100% 30.16 in 4.0 miles Calm Calm - 0.03 in Rain Light Rain
5:20 PM 48.2°F 48.2°F 100% 30.14 in 10.0 miles East 3.5 mph - 0.01 in   Overcast
5:39 PM 48.2°F 48.2°F 100% 30.14 in 10.0 miles East 4.6 mph - 0.02 in   Overcast
5:53 PM 48.0°F 48.0°F 100% 30.16 in 10.0 miles Calm Calm - 0.02 in   Overcast
6:21 PM 48.2°F 48.2°F 100% 30.14 in 10.0 miles Calm Calm - N/A   Mostly Cloudy
6:53 PM 48.0°F 46.9°F 96% 30.16 in 10.0 miles South 3.5 mph - N/A   Overcast
7:53 PM 46.9°F 46.9°F 100% 30.16 in 10.0 miles Calm Calm - 0.01 in Rain Light Rain
8:53 PM 46.9°F 46.9°F 100% 30.16 in 10.0 miles Calm Calm - 0.01 in   Overcast
9:53 PM 46.0°F 46.0°F 100% 30.17 in 10.0 miles Calm Calm - 0.01 in   Overcast
10:53 PM 46.0°F 46.0°F 100% 30.18 in 10.0 miles Calm Calm - 0.00 in   Overcast
11:10 PM 46.4°F 46.4°F 100% 30.16 in 10.0 miles Calm Calm - N/A   Overcast
11:53 PM 46.0°F 46.0°F 100% 30.19 in 10.0 miles Calm Calm - 0.00 in Rain Light Rain
Moon Phase
Nov. 13 Nov. 13 Nov. 20 Nov. 28 Dec. 06
Sunrise:07:11 AM (PST) Moon Rise:06:57 AM (PST)11/13
Sunset:04:34 PM (PST) Moon Set:04:29 PM (PST)11/13

Copyright © 2014 The Weather Underground, Inc.